This demonstration page uses our WeatherBlox Daily Observations layout. Learn more.

Left ArrowRight Arrow

Hourly Observations for September 24, 2017

Temp ( °F °C ) Dew Point ( °F °C ) Humidity (%) Winds ( mph kmh ) Pressure ( in mb ) Visibility ( mi km ) Precip ( " mm )
12:12 am 00:12 Clear 64 18 63 17 94 94 E 3 6 30.09 1019 10 16 N/A
12:32 am 00:32 Clear 64 18 61 16 88 88 N N/A 30.09 1019 10 16 N/A
12:52 am 00:52 Clear 63 17 63 17 100 100 N N/A 30.09 1019 10 16 N/A
1:12 am 01:12 Clear 64 18 63 17 94 94 E 3 6 30.09 1019 10 16 N/A
1:32 am 01:32 Clear 64 18 63 17 94 94 N N/A 30.09 1019 10 16 N/A
1:52 am 01:52 Clear 64 18 61 16 88 88 N N/A 30.09 1019 10 16 N/A
2:12 am 02:12 Clear 63 17 61 16 94 94 N N/A 30.09 1019 10 16 N/A
2:32 am 02:32 Clear 63 17 61 16 94 94 N N/A 30.09 1019 10 16 N/A
2:52 am 02:52 Clear 63 17 61 16 94 94 N 3 6 30.09 1019 10 16 N/A
3:12 am 03:12 Clear 61 16 61 16 100 100 NE 3 6 30.09 1019 10 16 N/A
3:32 am 03:32 Clear 63 17 61 16 94 94 E 5 7 30.09 1019 10 16 N/A
3:52 am 03:52 Clear 61 16 59 15 94 94 N N/A 30.09 1019 10 16 N/A
4:11 am 04:11 Clear 61 16 59 15 94 94 N N/A 30.09 1019 10 16 N/A
4:32 am 04:32 Clear 61 16 59 15 94 94 E 3 6 30.09 1019 10 16 N/A
4:52 am 04:52 Clear 61 16 59 15 94 94 N N/A 30.09 1019 10 16 N/A
5:11 am 05:11 Clear 61 16 59 15 94 94 N N/A 30.09 1019 10 16 N/A
5:32 am 05:32 Clear 59 15 59 15 100 100 N N/A 30.12 1020 10 16 N/A
5:51 am 05:51 Clear 59 15 57 14 94 94 N N/A 30.12 1020 10 16 N/A
6:12 am 06:12 Clear 59 15 57 14 94 94 N N/A 30.12 1020 10 16 N/A
6:31 am 06:31 Clear 59 15 57 14 94 94 N N/A 30.12 1020 10 16 N/A
6:52 am 06:52 Clear 59 15 57 14 94 94 N N/A 30.12 1020 10 16 N/A
7:12 am 07:12 Clear 59 15 57 14 94 94 NNE 3 6 30.12 1020 10 16 N/A
7:31 am 07:31 Clear 59 15 57 14 94 94 N N/A 30.12 1020 7 11 N/A
7:52 am 07:52 Sunny 59 15 57 14 94 94 N N/A 30.12 1020 10 16 N/A
8:12 am 08:12 Sunny 59 15 57 14 94 94 N N/A 30.12 1020 10 16 N/A
8:32 am 08:32 Sunny 61 16 59 15 94 94 N N/A 30.12 1020 10 16 N/A
8:52 am 08:52 Sunny 63 17 61 16 94 94 N N/A 30.12 1020 10 16 N/A
9:12 am 09:12 Sunny 66 19 61 16 83 83 N N/A 30.12 1020 10 16 N/A
9:32 am 09:32 Sunny 70 21 63 17 78 78 E 3 6 30.12 1020 10 16 N/A
9:52 am 09:52 Sunny 72 22 63 17 73 73 N N/A 30.09 1019 10 16 N/A
10:12 am 10:12 Sunny 75 24 63 17 65 65 N N/A 30.09 1019 10 16 N/A
10:31 am 10:31 Sunny 77 25 61 16 57 57 N N/A 30.09 1019 10 16 N/A
10:52 am 10:52 Sunny 79 26 61 16 54 54 E 6 9 30.09 1019 10 16 N/A
11:12 am 11:12 Sunny 81 27 63 17 54 54 E 5 7 30.09 1019 10 16 N/A
11:31 am 11:31 Sunny 81 27 59 15 48 48 E 5 7 30.09 1019 10 16 N/A
11:52 am 11:52 Sunny 82 28 59 15 45 45 ESE 3 6 30.09 1019 10 16 N/A
12:12 pm 12:12 Sunny 82 28 57 14 42 42 N N/A 30.09 1019 10 16 N/A
12:31 pm 12:31 Sunny 84 29 57 14 40 40 N N/A 30.09 1019 10 16 N/A
12:52 pm 12:52 Sunny 86 30 59 15 40 40 N N/A 30.09 1019 10 16 N/A
1:12 pm 13:12 Sunny 86 30 57 14 38 38 E 7 11 30.09 1019 10 16 N/A
1:31 pm 13:31 Sunny 88 31 57 14 35 35 SE 7 11 30.09 1019 10 16 N/A
1:52 pm 13:52 Sunny 88 31 57 14 35 35 ENE 6 9 30.06 1018 10 16 N/A
2:11 pm 14:11 Sunny 88 31 55 13 33 33 SE 3 6 30.06 1018 10 16 N/A
2:32 pm 14:32 Sunny 88 31 57 14 35 35 ESE 8 13 30.06 1018 10 16 N/A
2:52 pm 14:52 Sunny 90 32 55 13 31 31 ESE 9 15 30.03 1017 10 16 N/A
3:12 pm 15:12 Sunny 90 32 55 13 31 31 SSE 5 7 30.00 1016 10 16 N/A
3:32 pm 15:32 Sunny 90 32 55 13 31 31 SE 5 7 30.00 1016 10 16 N/A
3:52 pm 15:52 Partly Cloudy 90 32 55 13 31 31 SE 7 11 30.00 1016 10 16 N/A
4:12 pm 16:12 Sunny 90 32 55 13 31 31 ESE 7 11 30.00 1016 10 16 N/A
4:32 pm 16:32 Sunny 90 32 54 12 29 29 N N/A 30.00 1016 10 16 N/A
4:52 pm 16:52 Sunny 90 32 54 12 29 29 ESE 10 17 30.00 1016 10 16 N/A
5:11 pm 17:11 Sunny 90 32 54 12 29 29 SSE 3 6 29.97 1015 10 16 N/A
5:32 pm 17:32 Sunny 90 32 54 12 29 29 SSE 6 9 29.97 1015 10 16 N/A
5:52 pm 17:52 Sunny 90 32 54 12 29 29 SE 5 7 29.97 1015 10 16 N/A
6:11 pm 18:11 Sunny 88 31 54 12 31 31 SSE 8 13 29.97 1015 10 16 N/A
6:32 pm 18:32 Sunny 88 31 52 11 29 29 SSE 6 9 29.97 1015 10 16 N/A
6:52 pm 18:52 Sunny 86 30 54 12 33 33 SSE 6 9 30.00 1016 10 16 N/A
7:11 pm 19:11 Sunny 84 29 54 12 35 35 SSE 5 7 30.03 1017 10 16 N/A
7:32 pm 19:32 Sunny 82 28 55 13 40 40 SE 5 7 30.03 1017 10 16 N/A
7:52 pm 19:52 Clear 79 26 55 13 45 45 SE 3 6 30.03 1017 10 16 N/A
8:11 pm 20:11 Clear 75 24 57 14 54 54 SE 5 7 30.03 1017 10 16 N/A
8:32 pm 20:32 Clear 75 24 57 14 54 54 SE 5 7 30.03 1017 10 16 N/A
8:52 pm 20:52 Clear 75 24 57 14 54 54 SE 6 9 30.03 1017 10 16 N/A
9:12 pm 21:12 Clear 73 23 57 14 57 57 SE 5 7 30.03 1017 10 16 N/A
9:32 pm 21:32 Clear 70 21 57 14 64 64 SE 3 6 30.06 1018 10 16 N/A
9:52 pm 21:52 Clear 66 19 57 14 73 73 N N/A 30.06 1018 10 16 N/A
10:12 pm 22:12 Clear 64 18 57 14 78 78 N N/A 30.06 1018 10 16 N/A
10:32 pm 22:32 Clear 63 17 57 14 83 83 N N/A 30.06 1018 10 16 N/A
10:52 pm 22:52 Clear 63 17 57 14 83 83 N N/A 30.06 1018 10 16 N/A
11:12 pm 23:12 Clear 61 16 57 14 88 88 ENE 3 6 30.06 1018 10 16 N/A
11:32 pm 23:32 Clear 61 16 57 14 88 88 N N/A 30.06 1018 10 16 N/A
11:51 pm 23:51 Clear 61 16 57 14 88 88 N N/A 30.06 1018 10 16 N/A

Powered by AerisWeather